| time (UTC) | temp F | wind direction | speed knots | gust knots | rain 1hr in | rain 24hr in | rain mn in | humidity % | barometer mb |
| 20260505214548 | 55 | 69 | 4.3 | 10.4 | 0.00 | 0.01 | 0.01 | 59 | 1013.6 |
| 20260505214044 | 57 | 88 | 4.3 | 12.2 | 0.00 | 0.01 | 0.01 | 56 | 1013.3 |
| 20260505213542 | 58 | 102 | 5.2 | 7.8 | 0.00 | 0.01 | 0.01 | 56 | 1013.4 |
| 20260505213038 | 59 | 112 | 2.6 | 3.5 | 0.00 | 0.01 | 0.01 | 50 | 1013.2 |
| 20260505212535 | 60 | 114 | 5.2 | 9.6 | 0.00 | 0.01 | 0.01 | 48 | 1013.2 |
| 20260505212032 | 60 | 46 | 2.6 | 7.8 | 0.00 | 0.01 | 0.01 | 48 | 1013.4 |
| 20260505211529 | 59 | 111 | 2.6 | 4.3 | 0.00 | 0.01 | 0.01 | 50 | 1013.1 |
| 20260505211025 | 60 | 108 | 2.6 | 6.1 | 0.00 | 0.01 | 0.01 | 50 | 1013.2 |
| 20260505210522 | 60 | 132 | 0.9 | 2.6 | 0.00 | 0.01 | 0.01 | 49 | 1013.2 |
| 20260505210020 | 60 | 75 | 1.7 | 7.8 | 0.00 | 0.01 | 0.01 | 48 | 1013.2 |
| 20260505205518 | 62 | 93 | 6.1 | 7.8 | 0.00 | 0.01 | 0.01 | 46 | 1013.3 |
| 20260505205014 | 63 | 257 | 0.9 | 5.2 | 0.00 | 0.01 | 0.01 | 46 | 1013.3 |
| 20260505204512 | 62 | 197 | 1.7 | 5.2 | 0.00 | 0.01 | 0.01 | 45 | 1013.0 |
| 20260505204009 | 61 | 95 | 0.0 | 8.7 | 0.00 | 0.01 | 0.01 | 46 | 1013.6 |
| 20260505203506 | 61 | 287 | 1.7 | 6.1 | 0.00 | 0.01 | 0.01 | 47 | 1013.6 |
| 20260505203003 | 61 | 122 | 1.7 | 3.5 | 0.00 | 0.01 | 0.01 | 49 | 1013.9 |
| 20260505202459 | 59 | 111 | 1.7 | 3.5 | 0.00 | 0.01 | 0.01 | 51 | 1013.7 |
| 20260505201954 | 60 | 317 | 1.7 | 3.5 | 0.00 | 0.01 | 0.01 | 50 | 1013.9 |
| 20260505201452 | 60 | 249 | 5.2 | 6.1 | 0.00 | 0.01 | 0.01 | 49 | 1013.6 |
| 20260505200949 | 60 | 192 | 2.6 | 5.2 | 0.00 | 0.01 | 0.01 | 49 | 1013.7 |
| 20260505200447 | 58 | 21 | 0.9 | 4.3 | 0.00 | 0.01 | 0.01 | 55 | 1013.9 |
| 20260505195943 | 56 | 257 | 0.0 | 3.5 | 0.00 | 0.01 | 0.01 | 59 | 1013.6 |
| 20260505195440 | 56 | 128 | 3.5 | 3.5 | 0.00 | 0.01 | 0.01 | 59 | 1013.9 |
| 20260505194937 | 56 | 256 | 0.0 | 1.7 | 0.00 | 0.01 | 0.01 | 58 | 1014.3 |
| 20260505194435 | 57 | 79 | 1.7 | 3.5 | 0.00 | 0.01 | 0.01 | 59 | 1014.0 |
| 20260505193934 | 57 | 121 | 1.7 | 3.5 | 0.00 | 0.01 | 0.01 | 61 | 1014.0 |
| 20260505193432 | 57 | 282 | 1.7 | 3.5 | 0.00 | 0.01 | 0.01 | 62 | 1013.9 |
| 20260505192930 | 56 | 109 | 1.7 | 5.2 | 0.00 | 0.01 | 0.01 | 62 | 1014.2 |
| 20260505192428 | 55 | 128 | 2.6 | 3.5 | 0.00 | 0.01 | 0.01 | 69 | 1014.0 |
| 20260505191925 | 55 | 228 | 1.7 | 3.5 | 0.00 | 0.01 | 0.01 | 66 | 1014.4 |
| 20260505191424 | 55 | 136 | 1.7 | 3.5 | 0.00 | 0.01 | 0.01 | 67 | 1014.4 |
| 20260505190920 | 54 | 89 | 1.7 | 3.5 | 0.00 | 0.01 | 0.01 | 72 | 1014.4 |
| 20260505190416 | 53 | 130 | 3.5 | 5.2 | 0.02 | 0.01 | 0.01 | 70 | 1014.4 |
| 20260505185911 | 52 | 120 | 2.6 | 3.5 | 0.05 | 0.01 | 0.01 | 76 | 1014.4 |
| 20260505185409 | 52 | 140 | 2.6 | 5.2 | 0.02 | 0.00 | 0.00 | 72 | 1014.3 |
| 20260505184904 | 53 | 138 | 4.3 | 7.0 | 0.00 | 0.00 | 0.00 | 69 | 1014.3 |
| 20260505184401 | 53 | 98 | 1.7 | 5.2 | 0.00 | 0.00 | 0.00 | 66 | 1014.4 |
| 20260505183859 | 54 | 129 | 4.3 | 9.6 | 0.00 | 0.00 | 0.00 | 61 | 1014.3 |
| 20260505183355 | 55 | 109 | 4.3 | 9.6 | 0.00 | 0.00 | 0.00 | 58 | 1014.4 |
| 20260505182852 | 56 | 126 | 2.6 | 9.6 | 0.00 | 0.00 | 0.00 | 54 | 1014.2 |
| 20260505182349 | 57 | 92 | 2.6 | 9.6 | 0.00 | 0.00 | 0.00 | 51 | 1014.4 |
| 20260505181846 | 58 | 99 | 4.3 | 5.2 | 0.00 | 0.00 | 0.00 | 50 | 1014.0 |
| 20260505181343 | 58 | 110 | 0.0 | 5.2 | 0.00 | 0.00 | 0.00 | 49 | 1014.0 |
| 20260505180839 | 58 | 54 | 6.1 | 12.2 | 0.00 | 0.00 | 0.00 | 48 | 1014.0 |
| 20260505180336 | 58 | 98 | 1.7 | 4.3 | 0.00 | 0.00 | 0.00 | 47 | 1013.9 |
| 20260505175832 | 59 | 65 | 6.1 | 7.8 | 0.00 | 0.00 | 0.00 | 46 | 1014.0 |
| 20260505175329 | 59 | 202 | 0.0 | 6.1 | 0.00 | 0.00 | 0.00 | 46 | 1013.9 |
| 20260505174825 | 59 | 142 | 6.1 | 8.7 | 0.00 | 0.00 | 0.00 | 46 | 1014.0 |
| 20260505174323 | 61 | 100 | 3.5 | 10.4 | 0.00 | 0.00 | 0.00 | 42 | 1014.0 |
| 20260505173819 | 61 | 181 | 0.9 | 5.2 | 0.00 | 0.00 | 0.00 | 43 | 1013.9 |
| 20260505173316 | 61 | 122 | 3.5 | 7.8 | 0.00 | 0.00 | 0.00 | 43 | 1014.2 |
| 20260505172813 | 59 | 212 | 1.7 | 3.5 | 0.00 | 0.00 | 0.00 | 45 | 1014.3 |
| 20260505172310 | 59 | 112 | 1.7 | 4.3 | 0.00 | 0.00 | 0.00 | 44 | 1014.0 |
| 20260505171804 | 59 | 172 | 0.9 | 3.5 | 0.00 | 0.00 | 0.00 | 45 | 1014.3 |
| 20260505171302 | 58 | 147 | 1.7 | 3.5 | 0.00 | 0.00 | 0.00 | 46 | 1014.0 |
| 20260505170758 | 56 | 74 | 1.7 | 4.3 | 0.00 | 0.00 | 0.00 | 48 | 1014.2 |
| 20260505170255 | 55 | 105 | 3.5 | 7.0 | 0.00 | 0.00 | 0.00 | 50 | 1014.8 |
| 20260505165755 | 55 | 104 | 4.3 | 5.2 | 0.00 | 0.00 | 0.00 | 50 | 1014.2 |
| 20260505165252 | 55 | 119 | 3.5 | 7.8 | 0.00 | 0.00 | 0.00 | 49 | 1014.3 |
| 20260505164748 | 55 | 228 | 1.7 | 3.5 | 0.00 | 0.00 | 0.00 | 50 | 1014.0 |
| 20260505164245 | 56 | 227 | 1.7 | 4.3 | 0.00 | 0.00 | 0.00 | 50 | 1014.2 |
| 20260505163743 | 55 | 123 | 1.7 | 5.2 | 0.00 | 0.00 | 0.00 | 52 | 1014.5 |
| 20260505163242 | 54 | 233 | 0.0 | 5.2 | 0.00 | 0.00 | 0.00 | 53 | 1014.2 |
| 20260505162739 | 54 | 169 | 3.5 | 3.5 | 0.00 | 0.00 | 0.00 | 54 | 1014.4 |
| 20260505162235 | 53 | 175 | 1.7 | 3.5 | 0.00 | 0.00 | 0.00 | 56 | 1014.4 |
| 20260505161732 | 53 | 195 | 3.5 | 5.2 | 0.00 | 0.00 | 0.00 | 56 | 1014.6 |
| 20260505161230 | 53 | 111 | 0.0 | 4.3 | 0.00 | 0.00 | 0.00 | 58 | 1014.6 |
| 20260505160727 | 53 | 164 | 1.7 | 5.2 | 0.00 | 0.00 | 0.00 | 58 | 1014.8 |
| 20260505160225 | 53 | 190 | 1.7 | 3.5 | 0.00 | 0.00 | 0.00 | 59 | 1014.9 |
| 20260505153204 | 53 | 127 | 0.0 | 7.0 | 0.00 | 0.00 | 0.00 | 59 | 1015.1 |
| 20260505152700 | 53 | 204 | 2.6 | 9.6 | 0.00 | 0.00 | 0.00 | 58 | 1015.0 |
| 20260505152156 | 52 | 193 | 1.7 | 6.1 | 0.00 | 0.00 | 0.00 | 60 | 1015.0 |
| 20260505151652 | 52 | 220 | 1.7 | 5.2 | 0.00 | 0.00 | 0.00 | 61 | 1015.1 |
| 20260505151149 | 52 | 192 | 3.5 | 11.3 | 0.00 | 0.00 | 0.00 | 62 | 1015.0 |
| 20260505150645 | 52 | 187 | 1.7 | 6.1 | 0.00 | 0.00 | 0.00 | 64 | 1015.1 |
| 20260505150143 | 52 | 215 | 2.6 | 7.0 | 0.00 | 0.00 | 0.00 | 64 | 1015.2 |
| 20260505140611 | 53 | 183 | 4.3 | 5.2 | 0.00 | 0.00 | 0.00 | 54 | 1015.4 |
| 20260505140108 | 54 | 173 | 3.5 | 4.3 | 0.00 | 0.00 | 0.00 | 50 | 1015.4 |
| 20260505125024 | 56 | 250 | 2.6 | 2.6 | 0.00 | 0.00 | 0.00 | 43 | 1014.3 |
| 20260505124521 | 56 | 212 | 0.0 | 2.6 | 0.00 | 0.00 | 0.00 | 43 | 1014.0 |
| 20260505124017 | 56 | 210 | 0.9 | 1.7 | 0.00 | 0.00 | 0.00 | 43 | 1014.4 |
| 20260505123514 | 56 | 197 | 0.0 | 3.5 | 0.00 | 0.00 | 0.00 | 43 | 1014.3 |
| 20260505123010 | 56 | 244 | 1.7 | 4.3 | 0.00 | 0.00 | 0.00 | 42 | 1014.5 |
| 20260505122507 | 55 | 218 | 1.7 | 3.5 | 0.00 | 0.00 | 0.00 | 41 | 1014.4 |
| 20260505122004 | 55 | 269 | 1.7 | 3.5 | 0.00 | 0.00 | 0.00 | 41 | 1014.4 |
| 20260505121501 | 55 | 225 | 0.0 | 1.7 | 0.00 | 0.00 | 0.00 | 41 | 1014.6 |
| 20260505120957 | 55 | 253 | 0.0 | 1.7 | 0.00 | 0.00 | 0.00 | 42 | 1014.9 |
| 20260505120453 | 55 | 128 | 1.7 | 1.7 | 0.00 | 0.00 | 0.00 | 41 | 1014.4 |
| 20260505115953 | 55 | 93 | 0.0 | 1.7 | 0.00 | 0.00 | 0.00 | 41 | 1014.6 |
| 20260505115449 | 55 | 116 | 0.0 | 1.7 | 0.00 | 0.00 | 0.00 | 41 | 1014.4 |
| 20260505114947 | 55 | 286 | 0.0 | 1.7 | 0.00 | 0.00 | 0.00 | 40 | 1014.3 |
| 20260505114443 | 55 | 58 | 0.9 | 1.7 | 0.00 | 0.00 | 0.00 | 40 | 1014.4 |
| 20260505113940 | 55 | 16 | 1.7 | 1.7 | 0.00 | 0.00 | 0.00 | 40 | 1013.9 |
| 20260505113436 | 55 | 88 | 0.9 | 3.5 | 0.00 | 0.00 | 0.00 | 39 | 1013.9 |
| 20260505112932 | 56 | 278 | 0.0 | 1.7 | 0.00 | 0.00 | 0.00 | 40 | 1014.0 |
| 20260505112430 | 55 | 214 | 1.7 | 3.5 | 0.00 | 0.00 | 0.00 | 39 | 1014.3 |
| 20260505111926 | 56 | 139 | 0.0 | 1.7 | 0.00 | 0.00 | 0.00 | 37 | 1013.9 |
| 20260505111421 | 56 | 317 | 0.0 | 2.6 | 0.00 | 0.00 | 0.00 | 37 | 1014.2 |
| 20260505110917 | 56 | 138 | 1.7 | 2.6 | 0.00 | 0.00 | 0.00 | 36 | 1014.2 |
| 20260505110414 | 56 | 37 | 1.7 | 2.6 | 0.00 | 0.00 | 0.00 | 37 | 1014.5 |
| 20260505101845 | 56 | 42 | 1.7 | 1.7 | 0.00 | 0.00 | 0.00 | 37 | 1014.4 |
| 20260505101340 | 56 | 51 | 0.0 | 1.7 | 0.00 | 0.00 | 0.00 | 37 | 1014.3 |
| 20260505100836 | 56 | 5 | 0.0 | 0.9 | 0.00 | 0.00 | 0.00 | 37 | 1013.9 |
| 20260505100333 | 56 | 130 | 0.0 | 1.7 | 0.00 | 0.00 | 0.00 | 38 | 1014.2 |
| 20260505095828 | 56 | 116 | 0.0 | 2.6 | 0.00 | 0.00 | 0.00 | 37 | 1013.9 |
| 20260505095326 | 56 | 60 | 1.7 | 2.6 | 0.00 | 0.00 | 0.00 | 37 | 1013.9 |
| 20260505094822 | 56 | 44 | 0.0 | 0.0 | 0.00 | 0.00 | 0.00 | 37 | 1014.0 |
| 20260505094319 | 57 | 40 | 0.0 | 0.0 | 0.00 | 0.00 | 0.00 | 37 | 1014.0 |
| 20260505093814 | 57 | 180 | 0.0 | 0.9 | 0.00 | 0.00 | 0.00 | 36 | 1014.0 |
| 20260505093313 | 57 | 155 | 0.0 | 1.7 | 0.00 | 0.00 | 0.00 | 35 | 1013.8 |
| 20260505092808 | 57 | 65 | 0.0 | 2.6 | 0.00 | 0.00 | 0.00 | 36 | 1014.2 |
| 20260505092308 | 57 | 135 | 0.0 | 0.9 | 0.00 | 0.00 | 0.00 | 37 | 1014.4 |
| 20260505091804 | 57 | 212 | 0.0 | 0.9 | 0.00 | 0.00 | 0.00 | 36 | 1014.3 |
| 20260505091302 | 57 | 44 | 0.0 | 0.0 | 0.00 | 0.00 | 0.00 | 35 | 1014.3 |
| 20260505090759 | 57 | 44 | 0.0 | 0.9 | 0.00 | 0.00 | 0.00 | 36 | 1014.4 |
| 20260505090257 | 58 | 44 | 0.0 | 1.7 | 0.00 | 0.00 | 0.00 | 34 | 1014.5 |
| 20260505085754 | 58 | 73 | 0.9 | 1.7 | 0.00 | 0.00 | 0.00 | 34 | 1014.5 |
| 20260505085252 | 58 | 81 | 0.0 | 2.6 | 0.00 | 0.00 | 0.00 | 33 | 1014.5 |
| 20260505084749 | 58 | 124 | 0.0 | 0.0 | 0.00 | 0.00 | 0.00 | 34 | 1014.6 |
| 20260505084244 | 58 | 22 | 0.9 | 2.6 | 0.00 | 0.00 | 0.00 | 33 | 1014.6 |
| 20260505083740 | 58 | 34 | 0.0 | 0.9 | 0.00 | 0.00 | 0.00 | 34 | 1015.1 |
| 20260505083236 | 59 | 332 | 1.7 | 1.7 | 0.00 | 0.00 | 0.00 | 33 | 1015.1 |
| 20260505082733 | 59 | 57 | 1.7 | 2.6 | 0.00 | 0.00 | 0.00 | 33 | 1015.2 |
| 20260505082230 | 59 | 102 | 1.7 | 1.7 | 0.00 | 0.00 | 0.00 | 33 | 1015.0 |
| 20260505081726 | 59 | 106 | 0.9 | 2.6 | 0.00 | 0.00 | 0.00 | 32 | 1015.0 |
| 20260505081223 | 59 | 72 | 1.7 | 5.2 | 0.00 | 0.00 | 0.00 | 32 | 1015.0 |
| 20260505080720 | 59 | 85 | 3.5 | 5.2 | 0.00 | 0.00 | 0.00 | 32 | 1015.0 |
| 20260505080216 | 59 | 0 | 2.6 | 2.6 | 0.00 | 0.00 | 0.00 | 32 | 1014.9 |
| 20260505075711 | 60 | 86 | 1.7 | 3.5 | 0.00 | 0.00 | 0.00 | 32 | 1015.2 |
| 20260505075209 | 60 | 118 | 0.9 | 3.5 | 0.00 | 0.00 | 0.00 | 32 | 1015.2 |
| 20260505074706 | 60 | 150 | 0.9 | 3.5 | 0.00 | 0.00 | 0.00 | 32 | 1015.4 |
| 20260505074203 | 60 | 159 | 1.7 | 3.5 | 0.00 | 0.00 | 0.00 | 31 | 1015.4 |
| 20260505073701 | 60 | 240 | 1.7 | 10.4 | 0.00 | 0.00 | 0.00 | 31 | 1014.9 |
| 20260505073159 | 60 | 121 | 3.5 | 4.3 | 0.00 | 0.00 | 0.00 | 31 | 1015.0 |
| 20260505072654 | 60 | 216 | 2.6 | 9.6 | 0.00 | 0.00 | 0.00 | 31 | 1015.0 |
| 20260505072151 | 60 | 138 | 1.7 | 8.7 | 0.00 | 0.00 | 0.00 | 31 | 1015.0 |
| 20260505071646 | 60 | 269 | 0.0 | 3.5 | 0.00 | 0.00 | 0.00 | 30 | 1014.9 |
| 20260505071144 | 61 | 116 | 5.2 | 5.2 | 0.00 | 0.00 | 0.00 | 30 | 1014.9 |
| 20260505070641 | 61 | 123 | 0.9 | 1.7 | 0.00 | 0.00 | 0.00 | 30 | 1014.8 |
| 20260505070137 | 61 | 57 | 0.9 | 2.6 | 0.00 | 0.00 | 0.00 | 29 | 1014.8 |
| 20260505065633 | 61 | 293 | 1.7 | 2.6 | 0.00 | 0.00 | 0.00 | 29 | 1014.9 |
| 20260505065130 | 61 | 253 | 0.0 | 2.6 | 0.00 | 0.00 | 0.00 | 30 | 1014.8 |
| 20260505064627 | 61 | 254 | 2.6 | 4.3 | 0.00 | 0.00 | 0.00 | 29 | 1014.8 |
| 20260505064125 | 62 | 127 | 0.0 | 1.7 | 0.00 | 0.00 | 0.00 | 28 | 1014.6 |
| 20260505063622 | 61 | 343 | 1.7 | 4.3 | 0.00 | 0.00 | 0.00 | 28 | 1014.5 |
| 20260505063118 | 62 | 66 | 1.7 | 2.6 | 0.00 | 0.00 | 0.00 | 28 | 1014.6 |
| 20260505062615 | 62 | 49 | 0.9 | 4.3 | 0.00 | 0.00 | 0.00 | 27 | 1014.5 |
| 20260505062112 | 62 | 131 | 3.5 | 7.0 | 0.00 | 0.00 | 0.00 | 27 | 1014.8 |
| 20260505061609 | 62 | 41 | 2.6 | 2.6 | 0.00 | 0.00 | 0.00 | 27 | 1014.8 |
| 20260505061108 | 63 | 111 | 7.0 | 9.6 | 0.00 | 0.00 | 0.00 | 26 | 1014.8 |
| 20260505060605 | 63 | 56 | 7.0 | 7.8 | 0.00 | 0.00 | 0.00 | 26 | 1014.9 |
| 20260505055556 | 63 | 51 | 3.5 | 9.6 | 0.00 | 0.00 | 0.00 | 26 | 1014.9 |
| 20260505055053 | 63 | 107 | 5.2 | 7.8 | 0.00 | 0.00 | 0.00 | 25 | 1014.6 |
| 20260505054550 | 63 | 42 | 1.7 | 4.3 | 0.00 | 0.00 | 0.00 | 25 | 1014.8 |
| 20260505054049 | 63 | 55 | 0.9 | 5.2 | 0.00 | 0.00 | 0.00 | 25 | 1014.6 |
| 20260505053545 | 64 | 80 | 4.3 | 8.7 | 0.00 | 0.00 | 0.00 | 25 | 1014.5 |
| 20260505053042 | 63 | 70 | 3.5 | 6.1 | 0.00 | 0.00 | 0.00 | 25 | 1014.4 |
| 20260505052539 | 63 | 50 | 1.7 | 1.7 | 0.00 | 0.00 | 0.00 | 25 | 1014.3 |
| 20260505052037 | 64 | 72 | 1.7 | 3.5 | 0.00 | 0.00 | 0.00 | 25 | 1014.3 |
| 20260505051533 | 64 | 68 | 1.7 | 2.6 | 0.00 | 0.00 | 0.00 | 25 | 1014.5 |
| 20260505051032 | 64 | 17 | 1.7 | 7.0 | 0.00 | 0.00 | 0.00 | 25 | 1014.4 |
| 20260505050529 | 64 | 92 | 4.3 | 7.8 | 0.00 | 0.00 | 0.00 | 25 | 1014.3 |
| 20260505041457 | 65 | 51 | 1.7 | 1.7 | 0.00 | 0.00 | 0.00 | 25 | 1014.2 |
| 20260505040954 | 65 | 121 | 0.0 | 3.5 | 0.00 | 0.00 | 0.00 | 24 | 1014.4 |
| 20260505040452 | 65 | 197 | 0.9 | 2.6 | 0.00 | 0.00 | 0.00 | 24 | 1014.0 |
| 20260505035948 | 65 | 147 | 3.5 | 5.2 | 0.00 | 0.00 | 0.00 | 24 | 1014.3 |
| 20260505035444 | 65 | 77 | 0.0 | 3.5 | 0.00 | 0.00 | 0.00 | 24 | 1014.4 |
| 20260505034942 | 65 | 209 | 1.7 | 1.7 | 0.00 | 0.00 | 0.00 | 25 | 1014.5 |
| 20260505034438 | 66 | 149 | 0.9 | 3.5 | 0.00 | 0.00 | 0.00 | 24 | 1014.3 |
| 20260505033935 | 66 | 63 | 0.9 | 2.6 | 0.00 | 0.00 | 0.00 | 24 | 1014.0 |
| 20260505033432 | 66 | 171 | 1.7 | 3.5 | 0.00 | 0.00 | 0.00 | 23 | 1013.9 |
| 20260505032930 | 66 | 209 | 0.9 | 1.7 | 0.00 | 0.00 | 0.00 | 23 | 1013.9 |
| 20260505032427 | 66 | 114 | 2.6 | 2.6 | 0.00 | 0.00 | 0.00 | 23 | 1014.0 |
| 20260505031924 | 66 | 41 | 0.0 | 1.7 | 0.00 | 0.00 | 0.00 | 23 | 1013.7 |
| 20260505031421 | 66 | 104 | 3.5 | 3.5 | 0.00 | 0.00 | 0.00 | 23 | 1013.9 |
| 20260505030918 | 67 | 112 | 1.7 | 4.3 | 0.00 | 0.00 | 0.00 | 22 | 1013.6 |
| 20260505030413 | 67 | 259 | 0.9 | 5.2 | 0.00 | 0.00 | 0.00 | 22 | 1013.4 |
| 20260505025909 | 67 | 95 | 4.3 | 7.0 | 0.00 | 0.00 | 0.00 | 22 | 1013.7 |
| 20260505025407 | 67 | 72 | 1.7 | 7.0 | 0.00 | 0.00 | 0.00 | 22 | 1013.7 |
| 20260505024906 | 67 | 108 | 1.7 | 3.5 | 0.00 | 0.00 | 0.00 | 22 | 1013.6 |
| 20260505024403 | 67 | 182 | 0.9 | 5.2 | 0.00 | 0.00 | 0.00 | 21 | 1013.4 |
| 20260505023859 | 68 | 198 | 0.9 | 10.4 | 0.00 | 0.00 | 0.00 | 21 | 1013.2 |
| 20260505023356 | 68 | 204 | 0.9 | 3.5 | 0.00 | 0.00 | 0.00 | 21 | 1013.4 |
| 20260505022853 | 68 | 269 | 0.0 | 7.8 | 0.00 | 0.00 | 0.00 | 21 | 1013.2 |
| 20260505022350 | 68 | 170 | 1.7 | 3.5 | 0.00 | 0.00 | 0.00 | 21 | 1013.3 |
| 20260505021848 | 68 | 131 | 4.3 | 9.6 | 0.00 | 0.00 | 0.00 | 21 | 1013.3 |
| 20260505021344 | 68 | 136 | 7.0 | 9.6 | 0.00 | 0.00 | 0.00 | 21 | 1013.4 |
| 20260505020840 | 69 | 238 | 0.9 | 5.2 | 0.00 | 0.00 | 0.00 | 21 | 1012.8 |
| 20260505020336 | 69 | 314 | 1.7 | 6.1 | 0.00 | 0.00 | 0.00 | 21 | 1013.0 |
| 20260505015833 | 69 | 125 | 3.5 | 6.1 | 0.00 | 0.00 | 0.00 | 21 | 1012.8 |
| 20260505015330 | 69 | 135 | 0.0 | 3.5 | 0.00 | 0.00 | 0.00 | 21 | 1012.8 |
| 20260505014827 | 69 | 124 | 2.6 | 4.3 | 0.00 | 0.00 | 0.00 | 21 | 1013.1 |
| 20260505014324 | 69 | 53 | 1.7 | 2.6 | 0.00 | 0.00 | 0.00 | 21 | 1012.7 |
| 20260505013820 | 69 | 67 | 0.9 | 1.7 | 0.00 | 0.00 | 0.00 | 21 | 1012.6 |
| 20260505013318 | 69 | 140 | 0.0 | 3.5 | 0.00 | 0.00 | 0.00 | 21 | 1012.6 |
| 20260505012816 | 69 | 110 | 1.7 | 3.5 | 0.00 | 0.00 | 0.00 | 21 | 1012.7 |
| 20260505012314 | 69 | 134 | 3.5 | 7.0 | 0.00 | 0.00 | 0.00 | 20 | 1012.4 |
| 20260505011809 | 69 | 228 | 2.6 | 7.8 | 0.00 | 0.00 | 0.00 | 20 | 1012.4 |
| 20260505011307 | 69 | 145 | 0.9 | 4.3 | 0.00 | 0.00 | 0.00 | 20 | 1012.7 |
| 20260505010802 | 69 | 126 | 1.7 | 7.8 | 0.00 | 0.00 | 0.00 | 20 | 1012.7 |
| 20260505010258 | 69 | 137 | 1.7 | 2.6 | 0.00 | 0.00 | 0.00 | 19 | 1012.5 |
| 20260505005754 | 69 | 215 | 2.6 | 2.6 | 0.00 | 0.00 | 0.00 | 19 | 1012.5 |
| 20260505005252 | 70 | 164 | 0.9 | 3.5 | 0.00 | 0.00 | 0.00 | 19 | 1012.1 |
| 20260505004749 | 70 | 196 | 2.6 | 6.1 | 0.00 | 0.00 | 0.00 | 19 | 1012.5 |
| 20260505004245 | 70 | 271 | 1.7 | 4.3 | 0.00 | 0.00 | 0.00 | 19 | 1012.4 |
| 20260505003743 | 70 | 154 | 3.5 | 7.0 | 0.00 | 0.00 | 0.00 | 18 | 1012.7 |
| 20260505003240 | 70 | 178 | 1.7 | 5.2 | 0.00 | 0.00 | 0.00 | 18 | 1012.7 |
| 20260505002736 | 70 | 315 | 0.0 | 4.3 | 0.00 | 0.00 | 0.00 | 18 | 1012.6 |
| 20260505002234 | 70 | 199 | 1.7 | 6.1 | 0.00 | 0.00 | 0.00 | 17 | 1012.6 |
| 20260505001731 | 71 | 203 | 1.7 | 7.0 | 0.00 | 0.00 | 0.00 | 17 | 1012.8 |
| 20260505001229 | 71 | 89 | 0.0 | 5.2 | 0.00 | 0.00 | 0.00 | 17 | 1012.8 |
| 20260505000725 | 71 | 60 | 1.7 | 2.6 | 0.00 | 0.00 | 0.00 | 17 | 1013.0 |
| 20260505000226 | 71 | 89 | 0.0 | 2.6 | 0.00 | 0.00 | 0.00 | 17 | 1012.7 |
| 20260504235720 | 71 | 135 | 1.7 | 2.6 | 0.00 | 0.00 | 0.00 | 16 | 1012.8 |
| 20260504235216 | 71 | 134 | 3.5 | 7.8 | 0.00 | 0.00 | 0.00 | 16 | 1012.7 |
| 20260504234713 | 71 | 128 | 3.5 | 7.8 | 0.00 | 0.00 | 0.00 | 16 | 1013.0 |
| 20260504234210 | 71 | 265 | 2.6 | 4.3 | 0.00 | 0.00 | 0.00 | 16 | 1013.0 |
| 20260504233706 | 71 | 137 | 1.7 | 10.4 | 0.00 | 0.00 | 0.00 | 16 | 1013.0 |
| 20260504233202 | 71 | 50 | 0.9 | 7.8 | 0.00 | 0.00 | 0.00 | 16 | 1013.0 |
| 20260504232700 | 71 | 101 | 0.0 | 7.0 | 0.00 | 0.00 | 0.00 | 16 | 1013.0 |
| 20260504232157 | 71 | 197 | 0.0 | 7.8 | 0.00 | 0.00 | 0.00 | 16 | 1012.7 |
| 20260504231653 | 71 | 93 | 6.1 | 10.4 | 0.00 | 0.00 | 0.00 | 15 | 1013.0 |
| 20260504231150 | 72 | 113 | 1.7 | 6.1 | 0.00 | 0.00 | 0.00 | 15 | 1012.8 |
| 20260504230646 | 72 | 123 | 5.2 | 12.2 | 0.00 | 0.00 | 0.00 | 15 | 1012.8 |
| 20260504230145 | 72 | 134 | 7.8 | 13.0 | 0.00 | 0.00 | 0.00 | 15 | 1013.2 |
| 20260504225643 | 73 | 147 | 3.5 | 14.8 | 0.00 | 0.00 | 0.00 | 14 | 1013.1 |
| 20260504225138 | 73 | 214 | 0.0 | 7.0 | 0.00 | 0.00 | 0.00 | 14 | 1012.7 |
| 20260504224636 | 73 | 136 | 1.7 | 7.0 | 0.00 | 0.00 | 0.00 | 14 | 1013.0 |
| 20260504224132 | 73 | 129 | 1.7 | 9.6 | 0.00 | 0.00 | 0.00 | 14 | 1013.0 |
| 20260504223630 | 73 | 129 | 5.2 | 12.2 | 0.00 | 0.00 | 0.00 | 14 | 1013.3 |
| 20260504223125 | 73 | 115 | 2.6 | 9.6 | 0.00 | 0.00 | 0.00 | 14 | 1013.3 |
| 20260504222623 | 73 | 121 | 7.8 | 13.0 | 0.00 | 0.00 | 0.00 | 13 | 1013.1 |
| 20260504222120 | 73 | 108 | 0.9 | 14.8 | 0.00 | 0.00 | 0.00 | 14 | 1013.1 |
| 20260504221617 | 73 | 115 | 5.2 | 7.8 | 0.00 | 0.00 | 0.00 | 17 | 1013.3 |
| 20260504221114 | 73 | 97 | 5.2 | 10.4 | 0.00 | 0.00 | 0.00 | 17 | 1013.3 |
| 20260504220610 | 72 | 113 | 2.6 | 7.0 | 0.00 | 0.00 | 0.00 | 19 | 1013.3 |
| 20260504220108 | 73 | 106 | 6.1 | 12.2 | 0.00 | 0.00 | 0.00 | 18 | 1013.3 |
| 20260504215603 | 73 | 44 | 3.5 | 7.8 | 0.00 | 0.00 | 0.00 | 19 | 1013.3 |
| 20260504215101 | 72 | 79 | 7.0 | 9.6 | 0.00 | 0.00 | 0.00 | 19 | 1013.6 |